User: anonymous   Login
Location: Albany
(35.0000°S, 118.0000°E)
Time: 14:23:04
(UTC-05:00)
Language:

ERS-1 Rocket - Orbit

View from above orbital plane
View from above orbital plane
View from above satellite
View from above satellite

Ground track
Ground track

The orbit data is extracted from the following two-line orbital elements,

1 21610U 91050F   14353.68071367  .00000670  00000-0  22515-3 0  6784
2 21610 098.7250 022.2214 0004124 131.9620 336.6483 14.40454526229011
Epoch (UTC): 19 December 2014 16:20:13
Eccentricity: 0.0004124
inclination: 98.7250°
perigee height: 754 km
apogee height: 760 km
right ascension of ascending node: 22.2214°
argument of perigee: 131.9620°
revolutions per day: 14.40454526
mean anomaly at epoch: 336.6483°
orbit number at epoch: 22901

The dashed part of the orbit path shows where the satellite is in the earth's shadow,  

DLR